Flight Information

DEPARTURE
LAS VEGAS, NV
Elevation:
2205
Runways:
12L/30R - 4199x75 - ASPH-G
12R/30L - 5000x75 - ASPH-G
7/25 - 5005x75 - ASPH-G
ATIS:
118.05 702-631-7125
Clearance Delivery:
124
Ground:
121.7
Tower:
125.7
DESTINATION
,
Elevation:
TPA:
1000 (est.)


6605.1 NM74° True-14° Var60° HDG

Flight Plan:
(click to file on line)

1. Type
2. Aircraft Identification
3. Aircraft Type / Special Equipment
4. True Airspeed
kts
5. Departure Airport
(ICAO code)
6. Arriving Airport
(ICAO code)
7. Cruising Altitude
ft
8. Alternate Airport
(ICAO code)
9. Route of Flight
10. Remarks


00:00:00 Departure ATIS: Destination ATIS:

Clearance Limit:
Route:
Altitude: Expect in minutes
Frequency:
Transponder: (7500 Hijack / 7600 Lost Comms / 7700 Emergency)


KVGT 030753Z AUTO 00000KT 10SM CLR 26/07 A2993 RMK AO2 SLP124 T02560067 403500217
Time: 2022-10-03T07:53:00Z
1664784351
Winds: calm
Visibility: 10.0 sm
Clouds (AGL): CLR
Temperature: 25.6 C
Dew Point: 6.7 C
Pressure: 29.929134 in Hgbr


Notes:

Data extracted from FAA Digital Chart Supplement. Effective: 0901Z Thursday, 27 JAN 2022 to 0900z Thursday, 24 MAR 2022
Current ATIS data is provided courtisy of PilotEdge.